Location: Unspecified
(0.0000°N, 0.0000°E)
Time: 13:00:21
(UTC+00:00)

N. Korean satellite - Pass Details

Date: 29 May 2017
Orbit: 463 x 516 km, 97.2° (Epoch: 25 May)

Event Time Altitude Azimuth Distance (km) Brightness Sun altitude
Rises 18:28:10 0° 164° (SSE) 2,570 9.9 -7.1°
Reaches altitude 10° 18:30:15 10° 160° (SSE) 1,694 8.9 -7.6°
Maximum altitude 18:33:51 61° 79° (E) 571 6.7 -8.4°
Drops below altitude 10° 18:37:30 10° 358° (N) 1,713 9.7 -9.3°
Sets 18:39:36 0° 355° (N) 2,601 10.7 -9.8°
